N3OZD-10 Weather Reports


time (UTC)temp
C
wind
direction
speed
KPH
gust
KPH
rain 1hr
cm
rain 24hr
cm
rain mn
cm
humidity
%
barometer
mb
20260508041721 11 9 0.0 0.0 0.00 0.20 0.00 75 1010.6
20260508041219 11 9 0.0 0.0 0.00 0.20 0.00 75 1010.6
20260508040719 11 9 0.0 0.0 0.00 0.20 0.00 74 1010.6
20260508040220 11 9 0.0 0.0 0.00 0.20 0.00 74 1010.5
20260508035719 12 9 0.0 4.8 0.00 0.20 0.00 73 1010.5
20260508035219 11 40 0.0 4.8 0.00 0.20 0.00 73 1010.5
20260508034720 11 326 0.0 6.4 0.00 0.20 0.20 72 1010.5
20260508034219 12 8 0.0 4.8 0.00 0.20 0.20 72 1010.5
20260508033719 12 316 4.8 6.4 0.00 0.20 0.20 71 1010.4
20260508033219 12 329 0.0 6.4 0.00 0.20 0.20 71 1010.4
20260508032719 12 331 0.0 6.4 0.00 0.20 0.20 71 1010.3
20260508032400 12 295 1.6 3.2 0.00 0.20 0.20 70 1010.4
20260508032219 12 295 1.6 3.2 0.00 0.20 0.20 70 1010.4
20260508031720 12 274 0.0 4.8 0.00 0.20 0.20 70 1010.4
20260508031220 12 322 1.6 1.6 0.00 0.20 0.20 69 1010.3
20260508030719 12 300 0.0 4.8 0.00 0.20 0.20 69 1010.3
20260508030254 12 330 1.6 3.2 0.00 0.20 0.20 68 1010.3
20260508030219 12 330 1.6 3.2 0.00 0.20 0.20 68 1010.3
20260508025719 12 313 3.2 4.8 0.00 0.20 0.20 68 1010.3
20260508025220 12 302 1.6 6.4 0.00 0.20 0.20 68 1010.3
20260508024720 12 298 0.0 4.8 0.00 0.20 0.20 68 1010.3
20260508024512 12 317 1.6 4.8 0.00 0.20 0.20 68 1010.3
20260508024330 12 317 1.6 4.8 0.00 0.20 0.20 68 1010.3
20260508024220 12 317 1.6 4.8 0.00 0.20 0.20 68 1010.3
20260508023719 12 303 1.6 4.8 0.00 0.20 0.20 67 1010.3
20260508023219 12 291 0.0 0.0 0.00 0.20 0.20 67 1010.3
20260508022720 12 291 0.0 3.2 0.00 0.20 0.20 66 1010.3
20260508022219 12 303 0.0 0.0 0.00 0.20 0.20 66 1010.4
20260508021719 12 303 0.0 0.0 0.00 0.20 0.20 65 1010.4
20260508021223 12 303 0.0 1.6 0.00 0.20 0.20 65 1010.4
20260508020719 12 248 0.0 3.2 0.00 0.20 0.20 65 1010.4
20260508020219 13 343 1.6 3.2 0.00 0.20 0.20 65 1010.3
20260508015719 12 334 0.0 3.2 0.00 0.20 0.20 65 1010.3
20260508015219 13 281 0.0 4.8 0.00 0.20 0.20 65 1010.4
20260508014722 13 282 0.0 0.0 0.00 0.20 0.20 65 1010.3
20260508014219 12 282 0.0 0.0 0.00 0.20 0.20 65 1010.3
20260508013719 12 282 0.0 0.0 0.00 0.20 0.20 65 1010.3
20260508013224 13 282 0.0 0.0 0.00 0.20 0.20 65 1010.2
20260508012721 12 282 0.0 0.0 0.00 0.20 0.20 65 1010.1
20260508012219 12 282 0.0 4.8 0.00 0.20 0.20 66 1010.0
20260508011719 12 285 0.0 3.2 0.00 0.20 0.20 66 1009.9
20260508011219 12 327 0.0 3.2 0.00 0.20 0.20 68 1009.8
20260508010719 12 279 0.0 0.0 0.00 0.20 0.20 68 1009.7
20260508010219 12 279 0.0 0.0 0.00 0.20 0.20 67 1009.7
20260508005719 12 279 0.0 0.0 0.00 0.20 0.20 67 1009.6
20260508005219 12 279 0.0 0.0 0.00 0.20 0.20 67 1009.5
20260508004719 12 279 0.0 0.0 0.00 0.20 0.20 66 1009.3
20260508004219 12 279 0.0 0.0 0.00 0.20 0.20 65 1009.3
20260508003719 12 279 0.0 0.0 0.00 0.20 0.20 64 1009.2
20260508003219 13 279 0.0 0.0 0.00 0.20 0.20 64 1009.2
20260508002719 13 279 0.0 0.0 0.00 0.20 0.20 63 1009.1
20260508002219 13 279 0.0 0.0 0.00 0.20 0.20 63 1009.1
20260508001719 13 279 0.0 0.0 0.00 0.20 0.20 62 1009.0
20260508001219 13 279 0.0 0.0 0.00 0.20 0.20 62 1008.9
20260508000719 13 279 0.0 0.0 0.00 0.20 0.20 62 1008.9
20260508000220 13 279 0.0 0.0 0.00 0.20 0.20 61 1008.8
20260507235719 13 279 0.0 0.0 0.00 0.20 0.20 61 1008.7
20260507235219 13 279 0.0 0.0 0.00 0.20 0.20 60 1008.7
20260507234719 13 279 0.0 0.0 0.00 0.20 0.20 60 1008.7
20260507233719 13 279 0.0 0.0 0.00 0.20 0.20 59 1008.6
20260507233219 13 279 0.0 0.0 0.00 0.20 0.20 58 1008.5
20260507232219 14 279 0.0 0.0 0.00 0.20 0.20 59 1008.3
20260507231720 14 279 0.0 0.0 0.00 0.20 0.20 58 1008.3
20260507231220 15 279 0.0 0.0 0.00 0.20 0.20 58 1008.3
20260507230721 15 279 0.0 0.0 0.00 0.20 0.20 58 1008.3
20260507230219 15 279 0.0 0.0 0.00 0.20 0.20 58 1008.2
20260507225719 15 279 0.0 0.0 0.00 0.20 0.20 56 1008.2
20260507225222 15 240 0.0 0.0 0.00 0.20 0.20 57 1008.2
20260507224720 15 240 0.0 3.2 0.00 0.20 0.20 56 1008.1
20260507224220 15 295 3.2 4.8 0.00 0.20 0.20 54 1008.2
20260507223720 15 292 1.6 4.8 0.00 0.20 0.20 54 1008.1
20260507223221 15 251 3.2 3.2 0.00 0.20 0.20 58 1008.0
20260507222720 15 199 0.0 4.8 0.00 0.20 0.20 54 1008.0
20260507221720 15 217 1.6 3.2 0.00 0.20 0.20 53 1008.0
20260507221220 16 267 1.6 3.2 0.00 0.20 0.20 54 1008.0
20260507220720 16 251 0.0 6.4 0.00 0.20 0.20 53 1008.0
20260507220220 16 303 4.8 8.0 0.00 0.20 0.20 55 1008.0
20260507215720 16 246 1.6 4.8 0.00 0.20 0.20 54 1007.7
20260507215220 16 262 3.2 4.8 0.00 0.20 0.20 50 1007.9
20260507214720 17 248 0.0 1.6 0.00 0.20 0.20 49 1008.0
20260507214220 17 125 0.0 1.6 0.00 0.20 0.20 52 1008.0
20260507213721 17 213 0.0 1.6 0.00 0.20 0.20 46 1007.9
20260507213222 17 206 0.0 3.2 0.00 0.20 0.20 47 1008.1
20260507212721 17 241 1.6 8.0 0.00 0.20 0.20 47 1008.0
20260507212220 17 236 0.0 0.0 0.00 0.20 0.20 46 1008.1
20260507211720 17 236 0.0 4.8 0.00 0.20 0.20 46 1008.1
20260507211221 17 175 4.8 4.8 0.00 0.20 0.20 38 1008.3
20260507210721 17 227 1.6 11.3 0.00 0.20 0.20 38 1008.3
20260507205722 17 127 0.0 4.8 0.00 0.20 0.20 38 1008.2
20260507205220 17 104 1.6 3.2 0.00 0.20 0.20 38 1008.2
20260507204220 17 12 1.6 8.0 0.00 0.20 0.20 40 1008.2
20260507203720 17 330 4.8 8.0 0.00 0.20 0.20 41 1008.1
20260507203222 17 80 1.6 9.7 0.00 0.20 0.20 38 1008.1
20260507202726 17 111 0.0 9.7 0.00 0.20 0.20 41 1008.1
20260507201722 17 126 3.2 9.7 0.00 0.20 0.20 38 1008.0
20260507201220 17 168 4.8 8.0 0.00 0.20 0.20 41 1008.0
20260507200720 16 123 0.0 9.7 0.00 0.20 0.20 42 1008.2
20260507200220 16 97 3.2 12.9 0.00 0.20 0.20 39 1008.2
20260507195720 17 32 1.6 8.0 0.00 0.20 0.20 44 1008.3
20260507195220 16 92 0.0 8.0 0.00 0.20 0.20 43 1008.2
20260507194720 17 225 0.0 3.2 0.00 0.20 0.20 50 1008.4
20260507194220 16 91 0.0 4.8 0.00 0.20 0.20 49 1008.4
20260507193724 16 227 0.0 3.2 0.00 0.20 0.20 48 1008.5
20260507193223 17 234 0.0 3.2 0.00 0.20 0.20 49 1008.5
20260507192724 17 123 3.2 8.0 0.00 0.20 0.20 39 1008.6
20260507192220 17 52 0.0 8.0 0.00 0.20 0.20 37 1008.7
20260507191720 16 129 3.2 9.7 0.00 0.20 0.20 44 1008.8
20260507191220 16 329 0.0 1.6 0.00 0.20 0.20 42 1008.8
20260507190720 16 244 1.6 4.8 0.00 0.20 0.20 38 1008.8
20260507190222 16 130 0.0 9.7 0.00 0.20 0.20 38 1008.9
20260507185720 16 137 8.0 12.9 0.00 0.20 0.20 40 1009.1
20260507185220 17 354 0.0 6.4 0.00 0.20 0.20 38 1009.1
20260507184722 17 68 1.6 14.5 0.00 0.20 0.20 41 1009.1
20260507184220 17 139 9.7 11.3 0.00 0.20 0.20 41 1009.0
20260507183720 17 26 0.0 8.0 0.00 0.20 0.20 45 1009.0
20260507182720 17 75 8.0 9.7 0.00 0.20 0.20 40 1009.2
20260507182221 17 53 4.8 9.7 0.00 0.20 0.20 45 1009.4
20260507181722 17 298 3.2 11.3 0.00 0.20 0.20 48 1009.5
20260507181220 16 198 1.6 11.3 0.00 0.20 0.20 42 1009.5
20260507180720 16 115 0.0 14.5 0.00 0.20 0.20 42 1009.6
20260507180222 16 71 12.9 16.1 0.00 0.20 0.20 43 1009.7
20260507175723 16 108 0.0 9.7 0.00 0.20 0.20 43 1009.6
20260507175220 16 56 4.8 12.9 0.00 0.20 0.20 42 1009.7
20260507174720 16 81 9.7 9.7 0.00 0.20 0.20 43 1009.8
20260507174220 16 149 3.2 11.3 0.00 0.20 0.20 42 1009.8
20260507173720 16 147 4.8 14.5 0.00 0.20 0.20 43 1009.9
20260507173220 16 188 0.0 9.7 0.00 0.20 0.20 45 1009.8
20260507172720 16 139 8.0 8.0 0.00 0.20 0.20 42 1009.7
20260507172220 16 22 3.2 9.7 0.00 0.20 0.20 45 1009.8
20260507171722 15 71 9.7 16.1 0.00 0.20 0.20 50 1009.9
20260507171220 15 135 11.3 12.9 0.00 0.20 0.20 44 1010.0
20260507170720 15 181 1.6 17.7 0.00 0.20 0.20 48 1010.1
20260507170223 15 209 1.6 9.7 0.00 0.20 0.20 44 1010.1
20260507165720 15 158 8.0 16.1 0.00 0.20 0.20 41 1010.4
20260507165220 15 194 3.2 14.5 0.00 0.20 0.20 47 1010.4
20260507164720 15 60 4.8 11.3 0.00 0.20 0.20 51 1010.4
20260507164220 15 115 4.8 11.3 0.00 0.20 0.20 48 1010.5
20260507163720 15 270 0.0 6.4 0.00 0.20 0.20 49 1010.5
20260507163224 15 11 0.0 9.7 0.00 0.20 0.20 55 1010.7
20260507162720 14 258 1.6 6.4 0.00 0.20 0.20 52 1010.8
20260507162220 14 302 4.8 6.4 0.00 0.20 0.20 56 1010.9
20260507161725 14 317 0.0 3.2 0.00 0.20 0.20 56 1011.0
20260507161220 13 309 0.0 3.2 0.00 0.20 0.20 57 1011.1
20260507160720 13 146 0.0 8.0 0.00 0.20 0.20 54 1011.0
20260507160226 13 26 0.0 6.4 0.00 0.20 0.20 59 1011.1
20260507155725 13 348 0.0 8.0 0.00 0.20 0.20 58 1011.3
20260507155220 13 88 6.4 8.0 0.00 0.20 0.20 54 1011.3
20260507154220 13 147 0.0 8.0 0.00 0.20 0.20 55 1011.4
20260507153720 13 199 0.0 9.7 0.00 0.20 0.20 54 1011.4
20260507153221 13 168 1.6 8.0 0.00 0.23 0.20 57 1011.5
20260507152720 12 80 3.2 3.2 0.00 0.23 0.20 57 1011.6
20260507152220 12 81 3.2 9.7 0.00 0.23 0.20 56 1011.6
20260507151720 12 143 4.8 8.0 0.00 0.23 0.20 60 1011.7
20260507151221 12 101 0.0 4.8 0.00 0.23 0.20 60 1011.6
20260507150721 12 71 0.0 0.0 0.00 0.23 0.20 61 1011.8
20260507150224 12 71 0.0 6.4 0.00 0.23 0.20 58 1011.8
20260507145720 12 85 6.4 9.7 0.00 0.23 0.20 60 1011.9
20260507145221 12 157 0.0 4.8 0.00 0.23 0.20 63 1012.0
20260507144720 12 150 1.6 8.0 0.00 0.23 0.20 60 1011.9
20260507144220 12 37 0.0 4.8 0.00 0.23 0.20 61 1012.0
20260507143720 12 90 0.0 8.0 0.00 0.23 0.20 61 1011.9
20260507143220 12 102 1.6 9.7 0.00 0.36 0.20 63 1011.7
20260507142720 12 84 3.2 4.8 0.00 0.36 0.20 62 1011.9
20260507142220 12 97 1.6 6.4 0.00 0.36 0.20 63 1012.0
20260507141721 11 74 4.8 9.7 0.00 0.36 0.20 62 1012.1
20260507141220 12 157 0.0 6.4 0.00 0.36 0.20 63 1012.2
20260507140720 11 111 3.2 11.3 0.00 0.36 0.20 61 1012.2
20260507140221 11 105 6.4 11.3 0.00 0.36 0.20 61 1012.3
20260507135720 12 125 1.6 4.8 0.00 0.36 0.20 62 1012.5
20260507135220 12 102 1.6 9.7 0.00 0.36 0.20 61 1012.5
20260507134722 11 56 6.4 12.9 0.00 0.36 0.20 64 1012.5
20260507134221 11 71 11.3 11.3 0.00 0.36 0.20 60 1012.3
20260507133720 11 87 0.0 9.7 0.00 0.36 0.20 65 1012.4
20260507133221 11 135 4.8 6.4 0.00 0.58 0.20 69 1012.4
20260507132723 11 80 0.0 6.4 0.00 0.58 0.20 66 1012.4
20260507132221 12 90 0.0 8.0 0.00 0.58 0.20 68 1012.4
20260507131720 11 113 0.0 3.2 0.00 0.58 0.20 69 1012.4
20260507131221 11 71 3.2 6.4 0.00 0.58 0.20 67 1012.4
20260507130720 11 66 0.0 0.0 0.00 0.58 0.20 71 1012.4
20260507125720 11 66 0.0 0.0 0.00 0.58 0.20 73 1012.3
20260507125221 11 66 0.0 0.0 0.00 0.58 0.20 71 1012.3
20260507124720 11 66 0.0 0.0 0.00 0.58 0.20 71 1012.2
20260507124220 11 66 0.0 8.0 0.00 0.58 0.20 72 1012.1
20260507123721 10 116 4.8 8.0 0.00 0.58 0.20 71 1012.0
20260507123222 11 59 0.0 6.4 0.00 0.64 0.20 74 1012.1
20260507122720 10 68 0.0 8.0 0.00 0.64 0.20 75 1012.0
20260507122221 10 68 0.0 4.8 0.00 0.64 0.20 78 1012.1
20260507121723 10 29 0.0 6.4 0.00 0.64 0.20 81 1012.1
20260507121220 10 30 0.0 0.0 0.00 0.64 0.20 80 1012.0
20260507120721 10 30 0.0 4.8 0.00 0.64 0.20 82 1012.1
20260507120222 10 323 0.0 0.0 0.00 0.64 0.20 84 1012.0
20260507115720 10 323 0.0 0.0 0.03 0.64 0.20 85 1012.0
20260507115221 10 323 0.0 0.0 0.03 0.64 0.20 88 1012.0
20260507114720 10 323 0.0 0.0 0.03 0.64 0.20 88 1011.9
20260507114221 10 323 0.0 0.0 0.03 0.64 0.20 89 1011.9
20260507113724 10 323 0.0 0.0 0.03 0.64 0.20 90 1012.0
20260507113234 10 323 0.0 0.0 0.03 0.64 0.20 90 1012.0
20260507112721 10 323 0.0 0.0 0.03 0.64 0.20 91 1011.9
20260507112221 10 323 0.0 6.4 0.03 0.64 0.20 92 1012.0
20260507111723 10 8 0.0 0.0 0.03 0.64 0.20 92 1012.0
20260507111220 10 8 0.0 3.2 0.03 0.64 0.20 92 1011.8
20260507110721 10 21 1.6 3.2 0.03 0.64 0.20 93 1011.8
20260507110221 10 73 0.0 0.0 0.03 0.64 0.20 93 1011.7
20260507105721 10 73 0.0 0.0 0.00 0.61 0.18 93 1011.6
20260507105223 10 73 0.0 0.0 0.00 0.61 0.18 93 1011.7
20260507104723 10 73 0.0 0.0 0.00 0.61 0.18 93 1011.6
20260507104222 10 73 0.0 4.8 0.00 0.61 0.18 93 1011.5
20260507103721 10 28 0.0 6.4 0.00 0.61 0.18 95 1011.5
20260507103220 10 323 0.0 0.0 0.00 0.64 0.18 95 1011.4
20260507102720 10 323 0.0 0.0 0.00 0.64 0.18 95 1011.3
20260507102222 11 323 0.0 0.0 0.00 0.64 0.18 96 1011.2
20260507101721 11 323 0.0 0.0 0.00 0.64 0.18 96 1011.1
20260507101220 11 323 0.0 0.0 0.00 0.64 0.18 96 1011.2
20260507100720 11 323 0.0 0.0 0.00 0.64 0.18 96 1011.0
20260507100331 11 323 0.0 0.0 0.00 0.64 0.18 96 1011.0
20260507100222 11 323 0.0 0.0 0.00 0.64 0.18 96 1011.0
20260507095720 11 323 0.0 0.0 0.00 0.64 0.18 96 1011.0
20260507095223 11 323 0.0 0.0 0.00 0.64 0.18 96 1010.8
20260507094721 11 323 0.0 0.0 0.00 0.64 0.18 96 1011.1
20260507094221 11 323 0.0 0.0 0.00 0.64 0.18 96 1011.2
20260507093720 11 323 0.0 0.0 0.00 0.64 0.18 96 1011.1
20260507093223 11 323 0.0 0.0 0.00 0.64 0.18 96 1011.1
20260507092721 11 323 0.0 0.0 0.00 0.64 0.18 96 1011.2
20260507092221 11 323 0.0 0.0 0.00 0.64 0.18 95 1011.1
20260507091721 11 323 0.0 0.0 0.00 0.64 0.18 95 1011.2
20260507091221 11 323 0.0 0.0 0.00 0.64 0.18 95 1010.9
20260507090721 11 323 0.0 0.0 0.00 0.64 0.18 95 1010.9
20260507090222 11 323 0.0 0.0 0.00 0.64 0.18 95 1010.8
20260507085720 11 323 0.0 0.0 0.00 0.64 0.18 95 1010.6
20260507085256 11 323 0.0 0.0 0.00 0.64 0.18 95 1010.5
20260507085220 11 323 0.0 0.0 0.00 0.64 0.18 95 1010.5
20260507084721 11 323 0.0 0.0 0.00 0.64 0.18 95 1010.6
20260507084315 11 323 0.0 0.0 0.00 0.64 0.18 95 1010.6
20260507084220 11 323 0.0 0.0 0.00 0.64 0.18 95 1010.6
20260507083753 11 323 0.0 0.0 0.00 0.64 0.18 95 1010.5
20260507083720 11 323 0.0 0.0 0.00 0.64 0.18 95 1010.5
20260507083222 11 323 0.0 0.0 0.00 0.64 0.18 95 1010.3
20260507082720 11 323 0.0 0.0 0.03 0.64 0.18 95 1010.2
20260507082221 11 323 0.0 0.0 0.03 0.64 0.18 95 1010.1
20260507081722 11 323 0.0 0.0 0.03 0.64 0.18 95 1010.1
20260507081221 11 323 0.0 0.0 0.03 0.64 0.18 95 1010.1
20260507080721 11 323 0.0 0.0 0.03 0.64 0.18 95 1010.2
20260507080221 11 97 0.0 0.0 0.03 0.64 0.18 95 1010.0
20260507075721 11 97 0.0 9.7 0.03 0.64 0.18 95 1009.8
20260507075223 11 75 1.6 8.0 0.03 0.64 0.18 95 1009.7
20260507074723 11 130 1.6 8.0 0.03 0.64 0.18 95 1009.7
20260507074221 11 101 3.2 11.3 0.03 0.64 0.18 94 1009.9
20260507073721 11 118 3.2 9.7 0.05 0.64 0.18 94 1009.9
20260507073221 11 111 1.6 11.3 0.05 0.64 0.18 93 1009.9
20260507072721 11 67 3.2 8.0 0.03 0.61 0.15 93 1010.1
20260507072221 11 95 4.8 9.7 0.03 0.61 0.15 92 1010.3
20260507071721 11 50 0.0 8.0 0.03 0.61 0.15 92 1010.2
20260507071221 11 32 6.4 12.9 0.03 0.61 0.15 92 1010.2
20260507070721 11 102 8.0 12.9 0.03 0.61 0.15 91 1010.2
20260507070224 11 91 1.6 14.5 0.03 0.61 0.15 91 1010.2
20260507065721 11 87 11.3 12.9 0.03 0.61 0.15 90 1010.2
20260507065221 11 101 9.7 19.3 0.03 0.61 0.15 90 1010.3
20260507064221 12 143 3.2 12.9 0.03 0.61 0.15 92 1010.1
20260507063721 12 113 6.4 12.9 0.00 0.58 0.13 92 1010.0
20260507063221 12 67 8.0 12.9 0.00 0.58 0.13 92 1010.3
20260507062721 12 88 9.7 14.5 0.00 0.58 0.13 92 1010.1
20260507062221 12 63 4.8 12.9 0.00 0.58 0.13 94 1010.1
20260507061722 12 92 4.8 11.3 0.00 0.58 0.13 94 1010.1
20260507061221 12 70 8.0 11.3 0.03 0.58 0.13 95 1010.0
20260507060722 12 74 8.0 8.0 0.05 0.58 0.13 95 1010.0
20260507060225 12 63 0.0 0.0 0.08 0.58 0.13 95 1010.6
20260507055721 12 63 0.0 1.6 0.08 0.58 0.13 95 1010.5
20260507055223 12 64 0.0 4.8 0.08 0.58 0.13 95 1010.3
20260507054721 13 56 0.0 0.0 0.08 0.58 0.13 95 1010.2
20260507054221 13 56 0.0 4.8 0.08 0.58 0.13 95 1009.9
20260507053721 12 45 0.0 0.0 0.08 0.58 0.13 95 1010.2
20260507053221 13 45 0.0 6.4 0.13 0.58 0.13 95 1010.3
20260507052721 13 56 0.0 6.4 0.13 0.58 0.13 94 1010.2
20260507052222 13 68 0.0 0.0 0.13 0.58 0.13 94 1010.4
20260507051725 13 68 0.0 1.6 0.13 0.58 0.13 94 1010.3
20260507051221 13 68 1.6 6.4 0.08 0.53 0.08 93 1010.2
20260507050721 13 111 0.0 9.7 0.08 0.53 0.08 92 1010.4
20260507050222 13 74 0.0 8.0 0.05 0.51 0.05 91 1010.4
20260507045721 13 29 0.0 9.7 0.05 0.51 0.05 90 1010.5
20260507045223 13 92 0.0 16.1 0.05 0.51 0.05 88 1010.5
20260507044723 14 57 0.0 14.5 0.05 0.51 0.05 86 1010.1
20260507044221 14 45 4.8 6.4 0.05 0.51 0.05 83 1010.1
20260507043721 14 153 3.2 9.7 0.00 0.46 0.00 82 1009.7
20260507043224 14 104 0.0 9.7 0.00 0.46 0.00 82 1010.0
20260507042722 15 97 8.0 17.7 0.00 0.46 0.00 81 1009.7
20260507042221 15 43 0.0 17.7 0.00 0.46 0.00 80 1009.9